Flag for Canada Weather past 2 weeks in Pond Inlet, Nunavut, Canada

-22 °F


Feels Like: -42 °F
Forecast: -23 / -19 °F
Wind: 9 mph from South

Location: Pond Inlet

Current Time: Nov 26, 2015 at 10:17:38 AM

Latest Report: Nov 26, 2015 at 9:00 AM

Visibility: 9 mi

Pressure: 29.91 "Hg

Humidity: 75%

Dew point: -27 °F

Location of Pond InletLocation

Historic Weather in Pond Inlet — Graph


Pond Inlet temperature yesterday

Maximum temperature yesterday: -11 °F (at 12:01 AM)
Minimum temperature yesterday: -22 °F (at 4:00 PM)
Average temperature yesterday: -17 °F

Past Weeks' High & Low Weather Summary

High27 °F (Nov 19, 12:00 AM)100% (Nov 13, 9:00 AM)30.35 "Hg (Nov 13, 9:00 AM)
Low-24 °F (Nov 26, 12:00 AM)62% (Nov 14, 11:00 PM)29.04 "Hg (Nov 19, 1:00 AM)
Average0 °F81%29.77 "Hg
* Reported Nov 11 9:00 AM — Nov 26 9:00 AM, Pond Inlet, Weather by CustomWeather, © 2015

Note: Actual official high and low records may vary slightly from our data, if they occured in-between our weather recording intervals... More about our weather records


Pond Inlet weather history for previous 24 hours

Time TempWeatherWind HumidityBarometerVisibility
9:00 AM
Thu, Nov 26
-22 °FSunny.9 mph75%29.91 "Hg9 mi
8:00 AM-24 °FLight snow. Passing clouds.8 mph75%29.90 "Hg9 mi
7:00 AM-20 °FSunny.8 mph68%29.91 "Hg9 mi
6:00 AM-22 °FSunny.10 mph75%29.91 "Hg9 mi
5:02 AM-20 °FLight snow. Clear.8 mph68%29.91 "Hg9 mi
4:00 AM-20 °FClear.9 mph75%29.90 "Hg9 mi
3:00 AM-20 °FClear.8 mph75%29.89 "Hg9 mi
2:00 AM-20 °FClear.7 mph75%29.89 "Hg9 mi
1:00 AM-24 °FClear.9 mph68%29.88 "Hg9 mi
12:48 AM-24 °FSunny.9 mph75%29.88 "Hg9 mi
12:00 AM-24 °FSunny.7 mph75%29.88 "Hg9 mi
11:00 PM
Wed, Nov 25
-20 °FLight snow. Clear.7 mph75%29.88 "Hg9 mi
10:56 PM-20 °FLight snow. Clear.7 mph75%29.88 "Hg9 mi
10:00 PM-20 °FClear.6 mph75%29.88 "Hg9 mi
9:01 PM-20 °FLight snow. Partly cloudy.5 mph75%29.87 "Hg8 mi
8:00 PM-20 °FPassing clouds.6 mph75%29.87 "Hg9 mi
7:00 PM-20 °FLight snow. Passing clouds.5 mph75%29.86 "Hg8 mi
6:00 PM-20 °FLight snow. Partly sunny.6 mph75%29.85 "Hg6 mi
5:00 PM-20 °FLight snow. Partly sunny.3 mph75%29.85 "Hg15 mi
4:00 PM-22 °FLight snow. Partly sunny.3 mph75%29.85 "Hg15 mi
3:00 PM-20 °FPassing clouds.6 mph75%29.84 "Hg15 mi
2:00 PM-20 °FScattered clouds.5 mph75%29.83 "Hg15 mi
1:00 PM-20 °FLight snow. Broken clouds.5 mph75%29.83 "Hg12 mi
12:00 PM-20 °FLight snow. Partly sunny.5 mph75%29.83 "Hg15 mi
11:00 AM-17 °FScattered clouds.6 mph76%29.83 "Hg15 mi
10:00 AM-18 °FLight snow. Overcast.9 mph75%29.83 "Hg9 mi
Weather by CustomWeather, © 2015

See weather overviewHow to use our weather pages